Regional Weather Roundup
Issued by NWS

Home | Current Version | Previous Version | Graphics & Text | Print | Product List | Glossary Off
Versions: 1 2 3 4 5 6 7 8 9 10 11 12 13 14 15 16 17 18 19 20 21 22 23 24 25 26 27 28 29 30 31 32 33 34 35 36 37 38 39 40 41 42 43 44 45 46 47 48 49 50

758
ASUS43 KMKX 130720
RWRWI

WISCONSIN REGIONAL WEATHER ROUNDUP
NATIONAL WEATHER SERVICE MILWAUKEE/SULLIVAN WI
100 AM CST WED DEC 13 2017

NOTE: "FAIR" INDICATES FEW OR NO CLOUDS BELOW 12,000 FEET WITH NO
SIGNIFICANT WEATHER AND/OR OBSTRUCTIONS TO VISIBILITY.

WIZ001-002-006>008-014>016-023>028-130800-
NORTHWEST WISCONSIN

CITY           SKY/WX    TMP DP  RH WIND       PRES   REMARKS
SUPERIOR ARPT  CLOUDY    16  11  82 E5        29.61F WCI   9
ASHLAND        CLOUDY    14   9  80 E5        29.64F WCI   6
HAYWARD        CLOUDY    15   9  76 SE8       29.58F WCI   4
SIREN          CLOUDY    19  14  82 SE8       29.54F WCI   8
CUMBERLAND     CLOUDY    16  10  79 SE9       29.56F WCI   4
RICE LAKE      CLOUDY    17  12  82 SE10G17   29.60F WCI   4
CHETEK         CLOUDY    16  12  82 SE7       29.59F WCI   7
LADYSMITH      CLOUDY    16  12  87 SE9       29.64F WCI   4
EAU CLAIRE     CLOUDY    20  12  71 SE7       29.61F WCI  11
MENOMONIE      CLOUDY    20  14  77 E7        29.60F WCI  11
NEW RICHMOND   CLOUDY    21  16  79 SE8G17    29.55F WCI  12
OSCEOLA        CLOUDY    22  17  81 SE12      29.57F WCI  10
$$

WIZ003>005-009-010-017-018-130800-
NORTH CENTRAL WISCONSIN

CITY           SKY/WX    TMP DP  RH WIND       PRES   REMARKS
MANITOWISH WTR FLURRIES  10   7  89 SE7       29.63F WCI  -1
ARBOR VITAE    FLURRIES  12   8  84 SE6       29.63F WCI   3
WOODRUFF       FLURRIES  12   8  84 SE6       29.63F WCI   3
RHINELANDER    LGT SNOW  11   7  84 S8        29.66F FOG     WCI  -1
EAGLE RIVER    FLURRIES  10   5  77 SE3       29.65F
LAND O LAKES   CLOUDY    10   6  81 SE5       29.66F WCI   2
PHILLIPS       FLURRIES  11   9  91 SE8       29.63F WCI   0
TOMAHAWK       LGT SNOW  11   7  85 CALM      29.67F
MEDFORD        CLOUDY    12  10  89 SE7       29.64F WCI   1
MERRILL        FLURRIES  12   8  85 SE3       29.71F
$$

WIZ029-030-035-036-043>047-130800-
CENTRAL WISCONSIN

CITY           SKY/WX    TMP DP  RH WIND       PRES   REMARKS
WAUSAU         FLURRIES  12   8  84 SE7       29.70F WCI   1
MOSINEE        CLOUDY    14  10  85 SE7       29.71F WCI   4
MARSHFIELD     CLOUDY    15  12  88 SE10      29.67F WCI   2
STEVENS POINT  CLOUDY    13   9  83 SE5       29.73F WCI   5
WAUPACA        CLOUDY    17  10  74 E6        29.77F WCI   9
WAUTOMA        CLOUDY    16  10  77 SE7       29.76F WCI   6
WISC RAPIDS    CLOUDY    16  11  80 SE7       29.71F WCI   6
CAMP DOUGLAS   CLOUDY    20  12  69 SE8       29.69F WCI  11
$$

WIZ011>013-019>022-031-037>040-048>050-130800-
NORTHEAST WISCONSIN

CITY           SKY/WX    TMP DP  RH WIND       PRES   REMARKS
ANTIGO         FLURRIES  10   7  87 S6        29.70F WCI   0
SHAWANO        FLURRIES  16   7  66 CALM      29.77F
OCONTO         CLOUDY    14   7  75 CALM      29.80F
STURGEON BAY   CLOUDY    14   8  77 S6        29.81F WCI   5
GREEN BAY      CLOUDY    16   3  56 S3        29.80F
MANITOWOC      CLOUDY    15   5  64 S3        29.82F
APPLETON       FLURRIES  14   9  79 SE5       29.75F WCI   6
CLINTONVILLE   LGT SNOW  14   9  79 S7        29.77F WCI   4
OSHKOSH        CLOUDY    16  10  77 SE7       29.78F WCI   6
$$

WIZ032>034-041-042-053>061-130800-
SOUTHWEST WISCONSIN

CITY           SKY/WX    TMP DP  RH WIND       PRES   REMARKS
LA CROSSE      CLOUDY    26  17  68 S12       29.66F WCI  16
SPARTA         CLOUDY    25  16  70 CALM      29.69F
VIROQUA        CLOUDY    23  17  76 S8        29.67F WCI  14
BOSCOBEL       CLOUDY    27  15  61 SW7       29.73F WCI  19
PRAIRIE DU CHI PTCLDY    29  16  58 S6        29.72F WCI  23
PLATTEVILLE    CLOUDY    25  14  63 S12       29.74F WCI  14
$$

WIZ056-057-062-063-064-067-068-130800-
SOUTH CENTRAL WISCONSIN

CITY           SKY/WX    TMP DP  RH WIND       PRES   REMARKS
REEDSBURG      CLOUDY    21  10  63 SE6       29.72F WCI  13
BARABOO/DELLS  CLOUDY    21  11  64 S10       29.73F WCI  10
LONE ROCK      CLOUDY    24  16  71 E6        29.75F WCI  17
MINERAL POINT  CLOUDY    27  14  59 S10       29.72F WCI  17
MADISON        CLOUDY    21  10  62 S10       29.77F WCI  10
MIDDLETON      CLOUDY    24  12  60 S6        29.76F WCI  17
WATERTOWN      CLOUDY    19  10  67 SE6       29.78F WCI  11
MONROE         CLOUDY    23  12  63 S12       29.76F WCI  12
JANESVILLE     CLOUDY    25  12  58 S6        29.80F WCI  18
$$

WIZ051-052-058>065-066-070>072-130800-
SOUTHEAST WISCONSIN

CITY           SKY/WX    TMP DP  RH WIND       PRES   REMARKS
MILWAUKEE      FLURRIES  20   7  57 S6        29.82F WCI  12
WAUKESHA       CLOUDY    18   5  57 S5        29.81F WCI  11
MILWAUKEE/TIMM FLURRIES  19   3  49 S5        29.83F WCI  13
RACINE         CLOUDY    20   6  55 S5        29.86F WCI  13
BURLINGTON       N/A    N/A N/A N/A MISG        N/A
KENOSHA        CLOUDY    21   7  54 S6        29.83F WCI  13
FOND DU LAC    FLURRIES  18   7  62 SE7       29.79F WCI   9
SHEBOYGAN      CLOUDY    16   6  65 S5        29.81F WCI   9
WEST BEND      FLURRIES  18   9  68 S3        29.80F
JUNEAU         CLOUDY    17   9  69 SE7       29.79F WCI   8
$$

LSZ147-162-130800-
LAKE SUPERIOR

STATION/POSITION TIME  TEMP    WIND        PRES    WAVE
                       AIR SEA DIR/SP/G            HT/PER
                 (UTC) (F)     (DEG/KT/KT) (MB)    (FT/S)
DEVILS ISLAND    0700   19     120/ 11/ 16 1005.3F
SAXON HARBOR     0640   16                 1004.7F
$$

LMZ867-665-643>646-130800-
LAKE MICHIGAN

STATION/POSITION TIME  TEMP    WIND        PRES    WAVE
                       AIR SEA DIR/SP/G            HT/PER
                 (UTC) (F)     (DEG/KT/KT) (MB)    (FT/S)
NORTHPORT PIER   0640   15        CALM     1009.8F
KEWAUNEE LAKESHO 0654   15     250/  3/  4 1009.1F
SHEBOYGAN LAKESH 0700   17     210/  5/  7 1010.9F
PORT WASHINGTON  0640   19     250/  5/  7 1011.9F
MILWAUKEE LAKESH 0450   19     280/  6/  8   N/A
KENOSHA   LAKESH 0700   20     200/  3/  5 1011.2
$$

TC  - TEMPERATURE IN CELSIUS
VSB - VISIBILITY IN STATUTE MILES
WCI - WIND CHILL INDEX
HX  - HEAT INDEX





USA.gov is the U.S. government's official web portal to all federal, state and local government web resources and services.